User: anonymous   Login
Location: Unspecified
(0.0000°N, 0.0000°E)
Time: 03:35:49
(UTC+00:00)
Language:

OBJECT H - Orbit

View from above orbital plane
View from above orbital plane
View from above satellite
View from above satellite

Ground track
Ground track

The orbit data is extracted from the following two-line orbital elements,

1 41939U 98067KZ  17112.79366247 +.00062087 +00000-0 +74343-3 0  9999
2 41939 051.6392 312.1446 0006695 074.6914 285.4819 15.60336037014266
Epoch (UTC): 22 April 2017 19:02:52
Eccentricity: 0.0006695
inclination: 51.6392°
perigee height: 382 km
apogee height: 391 km
right ascension of ascending node: 312.1446°
argument of perigee: 74.6914°
revolutions per day: 15.60336037
mean anomaly at epoch: 285.4819°
orbit number at epoch: 1426

The dashed part of the orbit path shows where the satellite is in the earth's shadow,  

DLR